CW8935 Weather Reports


Display with metric or nautical units.
time (UTC)temp
F
wind
direction
speed
MPH
gust
MPH
rain 1hr
in
rain 24hr
in
rain mn
in
humidity
%
barometer
mb
20200408213801 67 136 3.0 8.0 0.00 0.00 0.00 63 1010.4
20200408213301 67 133 2.0 8.0 0.00 0.00 0.00 61 1010.4
20200408212759 67 121 2.0 7.0 0.00 0.00 0.00 60 1010.4
20200408212259 67 120 1.0 4.0 0.00 0.00 0.00 60 1010.4
20200408211759 67 140 0.0 3.0 0.00 0.00 0.00 60 1010.4
20200408211259 66 140 1.0 6.0 0.00 0.00 0.00 59 1010.3
20200408210757 66 140 1.0 6.0 0.00 0.00 0.00 61 1010.4
20200408210256 66 73 1.0 4.0 0.00 0.00 0.00 62 1010.4
20200408205755 66 132 1.0 4.0 0.00 0.00 0.00 61 1010.4
20200408205255 66 114 0.0 3.0 0.00 0.00 0.00 61 1010.3
20200408204756 66 355 0.0 3.0 0.00 0.00 0.00 61 1010.3
20200408204255 66 286 0.0 4.0 0.00 0.00 0.00 60 1010.3
20200408203753 66 161 1.0 7.0 0.00 0.00 0.00 60 1010.4
20200408203253 66 162 2.0 7.0 0.00 0.00 0.00 60 1010.5
20200408202753 66 204 2.0 6.0 0.00 0.00 0.00 59 1010.8
20200408202253 66 189 2.0 6.0 0.00 0.00 0.00 60 1010.8
20200408201753 65 173 2.0 6.0 0.00 0.00 0.00 63 1010.8
20200408201253 65 159 1.0 5.0 0.00 0.00 0.00 63 1010.7
20200408200753 64 13 0.0 4.0 0.00 0.00 0.00 65 1010.6
20200408200253 64 17 1.0 4.0 0.00 0.00 0.00 64 1010.7
20200408195753 63 38 1.0 4.0 0.00 0.00 0.00 65 1010.9
20200408195253 63 77 1.0 4.0 0.00 0.00 0.00 66 1010.8
20200408194749 63 120 1.0 4.0 0.00 0.00 0.00 65 1010.8
20200408194247 62 150 1.0 4.0 0.00 0.00 0.00 65 1010.8
20200408193747 62 130 1.0 3.0 0.00 0.00 0.00 66 1010.8
20200408193247 62 130 1.0 3.0 0.00 0.00 0.00 66 1010.6
20200408192747 62 130 0.0 3.0 0.00 0.00 0.00 66 1010.6
20200408192247 61 130 1.0 3.0 0.00 0.00 0.00 67 1010.6
20200408191747 61 214 1.0 4.0 0.00 0.00 0.00 65 1010.6
20200408191247 61 214 1.0 4.0 0.00 0.00 0.00 67 1010.8
20200408190747 61 286 1.0 3.0 0.00 0.00 0.00 69 1011.1
20200408190245 60 279 1.0 4.0 0.00 0.00 0.00 70 1011.1
20200408185745 60 227 1.0 4.0 0.00 0.00 0.00 70 1011.2
20200408185245 59 80 0.0 3.0 0.00 0.00 0.00 72 1011.2
20200408184745 59 42 0.0 3.0 0.00 0.00 0.00 73 1011.1
20200408184245 59 173 1.0 4.0 0.00 0.00 0.00 74 1011.1
20200408183745 58 174 1.0 6.0 0.00 0.00 0.00 75 1011.3
20200408183245 58 162 1.0 6.0 0.00 0.00 0.00 78 1011.2
20200408182745 57 111 1.0 4.0 0.00 0.00 0.00 79 1011.2
20200408182245 57 111 2.0 4.0 0.00 0.00 0.00 79 1011.3
20200408181745 57 69 1.0 4.0 0.00 0.00 0.00 80 1011.4
20200408181245 56 15 1.0 4.0 0.00 0.00 0.00 80 1011.4
20200408180746 56 137 0.0 4.0 0.00 0.00 0.00 81 1011.4
20200408180242 56 176 0.0 3.0 0.00 0.00 0.00 83 1011.5
20200408175743 55 31 0.0 3.0 0.00 0.00 0.00 84 1011.5
20200408175243 55 30 0.0 3.0 0.00 0.00 0.00 85 1011.5
20200408174743 55 30 1.0 4.0 0.00 0.00 0.00 85 1011.4
20200408174242 55 30 1.0 5.0 0.00 0.00 0.00 86 1011.4
20200408173743 54 27 1.0 5.0 0.00 0.00 0.00 86 1011.4
20200408173243 54 40 1.0 4.0 0.00 0.00 0.00 86 1011.5
20200408172743 53 40 1.0 4.0 0.00 0.00 0.00 86 1011.5
20200408172243 53 35 1.0 4.0 0.00 0.00 0.00 86 1011.4
20200408171743 53 128 1.0 4.0 0.00 0.00 0.00 86 1011.6
20200408171243 53 185 1.0 3.0 0.00 0.00 0.00 86 1011.6
20200408170741 52 74 1.0 3.0 0.00 0.00 0.00 87 1011.4
20200408170241 52 55 1.0 4.0 0.00 0.00 0.00 87 1011.1
20200408165741 52 55 1.0 4.0 0.00 0.00 0.00 87 1011.2
20200408165241 52 121 1.0 3.0 0.00 0.00 0.00 88 1011.1
20200408164741 51 122 0.0 3.0 0.00 0.00 0.00 88 1011.0
20200408164239 51 122 1.0 3.0 0.00 0.00 0.00 88 1010.9
20200408163739 51 122 1.0 3.0 0.00 0.00 0.00 88 1010.9
20200408163239 51 123 0.0 2.0 0.00 0.00 0.00 88 1011.0
20200408162739 51 123 0.0 1.0 0.00 0.00 0.00 88 1011.1
20200408162239 51 123 0.0 3.0 0.00 0.00 0.00 88 1011.2
20200408161741 50 123 1.0 4.0 0.00 0.00 0.00 88 1011.1
20200408161238 50 123 1.0 5.0 0.00 0.00 0.00 88 1011.0
20200408160739 50 67 1.0 5.0 0.00 0.00 0.00 88 1010.7
20200408160239 50 35 0.0 3.0 0.00 0.00 0.00 88 1010.7
20200408155738 50 35 0.0 3.0 0.00 0.00 0.00 88 1010.7
20200408155237 49 35 1.0 3.0 0.00 0.00 0.00 88 1010.7
20200408154737 49 35 1.0 3.0 0.00 0.00 0.00 88 1010.8
20200408154236 49 32 1.0 3.0 0.00 0.00 0.00 88 1010.9
20200408153735 49 150 0.0 2.0 0.00 0.00 0.00 87 1010.9
20200408153233 49 150 0.0 1.0 0.00 0.00 0.00 87 1010.9
20200408152733 49 150 0.0 1.0 0.00 0.00 0.00 87 1011.0
20200408152231 49 150 0.0 1.0 0.00 0.00 0.00 86 1011.2
20200408151730 48 150 0.0 1.0 0.00 0.00 0.00 86 1011.2
20200408151230 48 150 0.0 0.0 0.00 0.00 0.00 85 1011.2
20200408150730 48 150 0.0 0.0 0.00 0.00 0.00 85 1011.4
20200408150231 48 150 0.0 0.0 0.00 0.00 0.00 85 1011.5
20200408145731 48 150 0.0 0.0 0.00 0.00 0.00 85 1011.5
20200408145231 48 150 0.0 0.0 0.00 0.00 0.00 85 1011.6
20200408144731 48 150 0.0 0.0 0.00 0.00 0.00 84 1011.6
20200408144230 48 150 0.0 0.0 0.00 0.00 0.00 84 1011.5
20200408143731 48 150 0.0 0.0 0.00 0.00 0.00 84 1011.5
20200408143250 48 150 0.0 0.0 0.00 0.00 0.00 84 1011.4
20200408142731 48 150 0.0 0.0 0.00 0.00 0.00 84 1011.3
20200408142230 48 150 0.0 0.0 0.00 0.00 0.00 84 1011.3
20200408141731 48 150 0.0 0.0 0.00 0.00 0.00 84 1011.5
20200408141230 48 150 0.0 0.0 0.00 0.00 0.00 84 1011.4
20200408140730 48 150 0.0 0.0 0.00 0.00 0.00 84 1011.4
20200408140230 48 150 0.0 0.0 0.00 0.00 0.00 84 1011.5
20200408135730 48 150 0.0 0.0 0.00 0.00 0.00 84 1011.3
20200408135229 49 150 0.0 0.0 0.00 0.00 0.00 84 1011.4
20200408134728 49 150 0.0 0.0 0.00 0.00 0.00 84 1011.0
20200408134229 49 150 0.0 0.0 0.00 0.00 0.00 84 1011.0
20200408133729 49 150 0.0 0.0 0.00 0.00 0.00 84 1011.1
20200408133229 49 150 0.0 0.0 0.00 0.00 0.00 85 1011.2
20200408132729 49 150 0.0 0.0 0.00 0.00 0.00 85 1011.1
20200408132229 49 150 0.0 0.0 0.00 0.00 0.00 85 1010.9
20200408131729 49 150 0.0 0.0 0.00 0.00 0.00 85 1010.8
20200408131226 49 150 0.0 0.0 0.00 0.00 0.00 85 1010.8
20200408130727 49 150 0.0 1.0 0.00 0.00 0.00 85 1010.9
20200408130226 49 150 0.0 1.0 0.00 0.00 0.00 85 1011.0
20200408125724 49 150 0.0 0.0 0.00 0.00 0.00 85 1010.6
20200408125225 49 150 0.0 1.0 0.00 0.00 0.00 85 1010.6
20200408124724 48 150 0.0 1.0 0.00 0.00 0.00 85 1010.8
20200408124225 48 150 0.0 1.0 0.00 0.00 0.00 85 1010.8
20200408123724 48 150 0.0 1.0 0.00 0.00 0.00 85 1010.6
20200408123227 48 150 0.0 1.0 0.00 0.00 0.00 85 1010.7
20200408122726 48 150 0.0 0.0 0.00 0.00 0.00 85 1010.9
20200408122224 48 150 0.0 0.0 0.00 0.00 0.00 85 1010.8
20200408121724 48 150 0.0 0.0 0.00 0.00 0.00 85 1010.6
20200408121224 48 150 0.0 3.0 0.00 0.00 0.00 85 1010.6
20200408120724 48 150 1.0 5.0 0.00 0.00 0.00 85 1010.5
20200408120222 48 150 1.0 5.0 0.00 0.00 0.00 84 1010.5
20200408115722 48 153 0.0 3.0 0.00 0.00 0.00 84 1010.2
20200408115222 48 73 1.0 4.0 0.00 0.00 0.00 84 1010.1
20200408114723 48 73 1.0 5.0 0.00 0.00 0.00 84 1009.8
20200408114222 48 53 1.0 5.0 0.00 0.00 0.00 84 1010.0
20200408113722 48 49 0.0 5.0 0.00 0.00 0.00 84 1010.1
20200408113222 48 35 0.0 1.0 0.00 0.00 0.00 84 1010.2
20200408112721 48 35 0.0 1.0 0.00 0.00 0.00 84 1010.6
20200408112222 48 35 0.0 0.0 0.00 0.00 0.00 84 1010.8
20200408111720 47 35 0.0 1.0 0.00 0.00 0.00 84 1011.0
20200408111220 47 35 0.0 1.0 0.00 0.00 0.00 84 1011.2
20200408110721 47 35 0.0 1.0 0.00 0.00 0.00 83 1011.5
20200408110220 47 35 0.0 0.0 0.00 0.00 0.00 83 1011.6
20200408105723 47 35 0.0 1.0 0.00 0.00 0.00 83 1011.6
20200408105220 47 35 0.0 2.0 0.00 0.00 0.00 83 1011.6
20200408104720 47 35 0.0 2.0 0.00 0.00 0.00 83 1011.6
20200408104219 47 35 0.0 0.0 0.00 0.00 0.00 83 1011.3
20200408103720 47 35 0.0 0.0 0.00 0.00 0.00 83 1011.3
20200408103218 47 35 0.0 0.0 0.00 0.00 0.00 83 1011.5
20200408102718 47 35 0.0 0.0 0.00 0.00 0.00 83 1011.6
20200408102219 47 35 0.0 0.0 0.00 0.00 0.00 82 1011.5
20200408101717 47 35 0.0 0.0 0.00 0.00 0.00 82 1011.5
20200408101218 47 35 0.0 0.0 0.00 0.00 0.00 82 1011.6
20200408100719 47 35 0.0 0.0 0.00 0.00 0.00 82 1011.5
20200408100218 47 35 0.0 0.0 0.00 0.00 0.00 82 1011.5
20200408095718 47 35 0.0 0.0 0.00 0.00 0.00 81 1011.8
20200408095218 47 35 0.0 0.0 0.00 0.00 0.00 81 1011.6
20200408094718 47 35 0.0 0.0 0.00 0.00 0.00 81 1011.6
20200408094216 47 35 0.0 0.0 0.00 0.00 0.00 81 1011.4
20200408093716 47 35 0.0 0.0 0.00 0.00 0.00 80 1011.3
20200408093216 47 35 0.0 0.0 0.00 0.00 0.00 80 1011.1
20200408092716 47 35 0.0 0.0 0.00 0.00 0.00 80 1011.2
20200408092217 47 35 0.0 0.0 0.00 0.00 0.00 80 1011.1
20200408091216 47 35 0.0 0.0 0.00 0.00 0.00 79 1011.0
20200408090716 47 35 0.0 0.0 0.00 0.00 0.00 79 1011.0
20200408090218 47 35 0.0 0.0 0.00 0.00 0.00 79 1010.9
20200408085716 47 35 0.0 0.0 0.00 0.00 0.00 79 1010.8
20200408085214 47 35 0.0 0.0 0.00 0.00 0.00 79 1010.9
20200408084714 47 35 0.0 0.0 0.00 0.00 0.00 78 1011.0
20200408084214 47 35 0.0 0.0 0.00 0.00 0.00 78 1011.0
20200408083714 47 35 0.0 0.0 0.00 0.00 0.00 78 1011.1
20200408083214 47 35 0.0 0.0 0.00 0.00 0.00 78 1011.3
20200408082713 47 35 0.0 0.0 0.00 0.00 0.00 78 1011.3
20200408082214 47 35 0.0 0.0 0.00 0.00 0.00 78 1011.3
20200408081715 47 35 0.0 0.0 0.00 0.00 0.00 78 1011.4
20200408081211 47 35 0.0 0.0 0.00 0.00 0.00 78 1011.5
20200408080712 47 35 0.0 0.0 0.00 0.00 0.00 79 1011.5
20200408080212 47 35 0.0 0.0 0.00 0.00 0.00 79 1011.4
20200408075717 47 35 0.0 0.0 0.00 0.00 0.00 79 1011.4
20200408075211 47 35 0.0 0.0 0.00 0.00 0.00 79 1011.4
20200408074712 47 35 0.0 0.0 0.00 0.00 0.00 78 1011.5
20200408074210 48 35 0.0 0.0 0.00 0.00 0.00 78 1011.5
20200408073708 48 35 0.0 0.0 0.00 0.00 0.00 78 1011.4
20200408073210 48 35 0.0 0.0 0.00 0.00 0.00 78 1011.3
20200408072707 48 35 0.0 0.0 0.00 0.00 0.00 78 1011.3
20200408072208 48 35 0.0 0.0 0.00 0.00 0.00 77 1011.2
20200408071707 48 35 0.0 0.0 0.00 0.00 0.00 77 1011.2
20200408071207 48 35 0.0 0.0 0.00 0.00 0.00 77 1011.2
20200408070705 48 35 0.0 0.0 0.00 0.00 0.00 76 1010.8
20200408070204 48 35 0.0 0.0 0.00 0.00 0.00 76 1010.6
20200408065704 49 35 0.0 0.0 0.00 0.00 0.00 76 1010.8
20200408065205 49 35 0.0 0.0 0.00 0.00 0.00 75 1011.0
20200408064734 49 35 0.0 0.0 0.00 0.00 0.00 75 1011.1
20200408064205 49 35 0.0 0.0 0.00 0.00 0.00 74 1011.1
20200408063702 49 35 0.0 0.0 0.00 0.00 0.00 74 1011.1
20200408063202 49 35 0.0 0.0 0.00 0.00 0.00 73 1011.2
20200408062702 49 35 0.0 0.0 0.00 0.00 0.00 73 1011.1
20200408062203 49 35 0.0 1.0 0.00 0.00 0.00 73 1011.2
20200408061702 50 35 0.0 2.0 0.00 0.00 0.00 73 1011.3
20200408061201 50 35 0.0 2.0 0.00 0.00 0.00 72 1011.4
20200408060700 50 35 0.0 0.0 0.00 0.00 0.00 72 1011.7
20200408060200 50 35 0.0 0.0 0.00 0.00 0.00 72 1011.8
20200408055700 50 35 0.0 0.0 0.00 0.00 0.00 71 1011.9
20200408055200 51 35 0.0 0.0 0.00 0.00 0.00 71 1012.0
20200408054701 51 35 0.0 0.0 0.00 0.00 0.00 71 1012.2
20200408054203 51 35 0.0 1.0 0.00 0.00 0.00 70 1012.3
20200408053700 51 35 0.0 1.0 0.00 0.00 0.00 70 1012.3
20200408053201 51 35 0.0 0.0 0.00 0.00 0.00 70 1012.3
20200408052700 51 35 0.0 1.0 0.00 0.00 0.00 69 1012.3
20200408052159 51 35 0.0 1.0 0.00 0.00 0.00 69 1012.4
20200408051658 52 35 0.0 0.0 0.00 0.00 0.00 68 1012.5
20200408051158 52 35 0.0 1.0 0.00 0.00 0.00 68 1012.5
20200408050659 52 35 0.0 1.0 0.00 0.00 0.00 68 1012.5
20200408050158 52 35 0.0 1.0 0.00 0.00 0.00 67 1012.4
20200408045656 52 35 0.0 1.0 0.00 0.00 0.00 67 1012.6
20200408045154 52 35 0.0 3.0 0.00 0.00 0.00 67 1012.7
20200408044654 53 34 1.0 5.0 0.00 0.00 0.00 66 1012.8
20200408044152 53 55 0.0 5.0 0.00 0.00 0.00 66 1012.9
20200408043652 53 25 0.0 2.0 0.00 0.00 0.00 66 1012.7
20200408043151 53 26 0.0 2.0 0.00 0.00 0.00 66 1012.7
20200408042651 53 26 0.0 6.0 0.00 0.00 0.00 65 1012.8
20200408042150 53 26 1.0 6.0 0.00 0.00 0.00 64 1012.7
20200408041650 53 62 2.0 5.0 0.00 0.00 0.00 64 1012.6
20200408041151 54 74 2.0 7.0 0.00 0.00 0.00 64 1012.4
20200408040650 54 38 2.0 8.0 0.00 0.00 0.00 64 1012.2
20200408040150 54 42 1.0 8.0 0.00 0.00 0.00 64 1012.0
20200408035650 54 55 1.0 5.0 0.00 0.00 0.00 63 1012.0
20200408035150 55 34 1.0 8.0 0.00 0.00 0.00 63 1011.9
20200408034650 55 36 1.0 8.0 0.00 0.00 0.00 64 1011.9
20200408034150 55 25 0.0 4.0 0.00 0.00 0.00 63 1012.2
20200408033650 55 25 1.0 4.0 0.00 0.00 0.00 63 1012.3
20200408033148 55 47 0.0 3.0 0.00 0.00 0.00 63 1012.3
20200408032648 56 33 0.0 3.0 0.00 0.00 0.00 62 1012.4
20200408032148 56 34 0.0 3.0 0.00 0.00 0.00 62 1012.6
20200408031648 56 33 1.0 3.0 0.00 0.00 0.00 61 1012.6
20200408031147 56 43 1.0 3.0 0.00 0.00 0.00 61 1012.7
20200408030645 57 44 1.0 5.0 0.00 0.00 0.00 60 1012.6
20200408030146 57 44 2.0 5.0 0.00 0.00 0.00 59 1012.3
20200408025647 57 325 2.0 5.0 0.00 0.00 0.00 59 1012.2
20200408025146 58 78 2.0 6.0 0.00 0.00 0.00 59 1012.0
20200408024646 58 45 2.0 6.0 0.00 0.00 0.00 59 1012.3
20200408024146 58 66 1.0 5.0 0.00 0.00 0.00 58 1012.3
20200408023647 58 19 1.0 7.0 0.00 0.00 0.00 58 1012.3
20200408023146 59 48 1.0 7.0 0.00 0.00 0.00 58 1012.4
20200408022646 59 66 1.0 4.0 0.00 0.00 0.00 57 1012.4
20200408022146 59 64 1.0 9.0 0.00 0.00 0.00 57 1012.4
20200408021646 59 39 2.0 9.0 0.00 0.00 0.00 56 1012.4
20200408021146 60 66 2.0 8.0 0.00 0.00 0.00 56 1012.4
20200408020646 60 32 2.0 10.0 0.00 0.00 0.00 56 1012.4
20200408020146 60 38 2.0 10.0 0.00 0.00 0.00 56 1012.4
20200408015646 60 55 3.0 9.0 0.00 0.00 0.00 56 1012.4
20200408015146 61 35 3.0 9.0 0.00 0.00 0.00 54 1012.4
20200408014646 61 38 3.0 9.0 0.00 0.00 0.00 55 1012.5
20200408014144 61 36 3.0 9.0 0.00 0.00 0.00 55 1012.4
20200408013643 61 41 4.0 9.0 0.00 0.00 0.00 53 1012.5
20200408013143 62 70 4.0 9.0 0.00 0.00 0.00 54 1012.6
20200408012642 62 63 3.0 9.0 0.00 0.00 0.00 53 1012.7
20200408012140 62 107 3.0 9.0 0.00 0.00 0.00 53 1012.7
20200408011640 63 75 3.0 9.0 0.00 0.00 0.00 54 1012.7
20200408011140 63 102 3.0 9.0 0.00 0.00 0.00 54 1012.7
20200408010640 63 5 4.0 11.0 0.00 0.00 0.00 53 1012.7
20200408010137 64 61 4.0 11.0 0.00 0.00 0.00 52 1012.9
20200408005636 64 53 4.0 10.0 0.00 0.00 0.00 52 1013.0
20200408005137 64 70 4.0 10.0 0.00 0.00 0.00 52 1013.0
20200408004636 64 66 3.0 9.0 0.00 0.00 0.00 52 1013.1
20200408004136 65 76 3.0 9.0 0.00 0.00 0.00 51 1013.1
20200408003635 65 116 4.0 10.0 0.00 0.00 0.00 51 1013.2
20200408003136 66 87 4.0 11.0 0.00 0.00 0.00 50 1013.2
20200408002635 66 57 3.0 11.0 0.00 0.00 0.00 48 1013.4
20200408002136 67 86 3.0 9.0 0.00 0.00 0.00 48 1013.4
20200408001633 67 74 2.0 7.0 0.00 0.00 0.00 48 1013.5
20200408000633 68 102 1.0 6.0 0.00 0.00 0.00 47 1013.6
20200408000133 69 45 1.0 6.0 0.00 0.00 0.00 46 1013.6
20200407235632 69 92 1.0 5.0 0.00 0.01 0.00 44 1013.6
20200407235132 70 81 2.0 8.0 0.00 0.01 0.00 41 1013.7
20200407234631 70 121 2.0 8.0 0.00 0.01 0.00 42 1013.7
20200407234131 71 78 3.0 10.0 0.00 0.01 0.00 42 1013.8
20200407233632 71 68 2.0 10.0 0.00 0.01 0.00 42 1013.8
20200407233132 72 57 2.0 9.0 0.00 0.01 0.00 43 1013.9
20200407232630 72 43 2.0 9.0 0.00 0.01 0.00 43 1014.0
20200407232130 72 50 1.0 8.0 0.00 0.01 0.00 42 1014.1
20200407231630 72 47 2.0 9.0 0.00 0.01 0.00 42 1014.2
20200407231129 72 52 3.0 9.0 0.00 0.01 0.00 42 1014.3
20200407230629 72 148 3.0 8.0 0.00 0.01 0.00 43 1014.4
20200407230129 72 113 3.0 9.0 0.00 0.01 0.00 41 1014.3
20200407225629 72 136 3.0 9.0 0.00 0.01 0.00 44 1014.4
20200407225130 71 109 2.0 8.0 0.00 0.01 0.00 44 1014.4
20200407224630 71 47 2.0 7.0 0.00 0.01 0.00 46 1014.4
20200407224129 71 123 3.0 7.0 0.00 0.01 0.00 43 1014.5
20200407223630 71 124 3.0 7.0 0.00 0.01 0.00 48 1014.5
20200407223130 71 61 2.0 9.0 0.00 0.01 0.00 41 1014.6
20200407222630 71 161 2.0 9.0 0.00 0.01 0.00 46 1014.6
20200407222130 71 148 2.0 6.0 0.00 0.01 0.00 45 1014.6
20200407221627 71 134 3.0 7.0 0.00 0.01 0.00 50 1014.7
20200407221127 71 50 2.0 7.0 0.00 0.01 0.00 49 1014.8
20200407220628 71 77 1.0 7.0 0.00 0.01 0.00 51 1014.9
20200407220128 71 145 2.0 8.0 0.00 0.01 0.00 49 1014.9
20200407215626 70 128 2.0 8.0 0.00 0.01 0.00 51 1015.1
20200407215125 70 336 2.0 6.0 0.00 0.01 0.00 52 1015.0
20200407214624 69 68 2.0 6.0 0.00 0.01 0.00 52 1015.1
20200407214124 69 192 2.0 7.0 0.00 0.01 0.00 51 1015.1